Погода в Белогорске

Погода в Белогорске : погода сейчас, прогноз погоды и архив. Всё, что Вы хотите узнать о погоде в Белогорске!

Хотите узнать прогноз погоды в Белогорске? Тогда Вам сюда: Погода в Белогорске

Поиск расширенной информации на нашем сайте:

Другие новости

Новости СМИ2

Главная страница сайта

Новости сайта

03.07.2017

Напоминаем, что на нашем специализированном сайте Метеоцентр.Азия вы можете получить высокодетализированные автоматические прогнозы погоды по пунктам России, СНГ и мира в авиационном формате (включающие направление и скорость ветра, видимость, явления погоды, количество и форму облачности, нижнюю и верхнюю границу облачности).


Погода в Белогорске - сегодня

Время (UTC), дата Ветер
(°,м/с) 
Видим.   Явления Облачность Т
(°С)
Тd
(°С)
f(%) Тe
(°С)
Pmin
(гПа)
dP
(гПа)
Po
(мм)
O2
(г/м3)
Тmin Tmax R s Состояние
почвы
18 15.10.17 120 (ЮВ) 20000 м    ясно 
-3.6 -7.7 73 -3  1025.6  -0.9  752  308           
21 15.10.17 140 (ЮВ) 20000 м    3/0 средняя 
[Ac trans]
-3.9 -8.6 70 -5  1024.3  -1.4  751  308           
00 16.10.17 170 (Ю) 20000 м    10/0 средняя, верхняя 
[Ac trans|Ci fib]
-2.2 -5.9 76 -3  1023.7  -0.4  751  306  -4.2        замёрзшая 
03 16.10.17 260 (З) 20000 м    10/6 600 м средняя 
[Sc|Ac trans]
+3.5 -7.5 44 +4  1022.1  -1.1  750  299           
06 16.10.17 210 (ЮЗ) 20000 м    10/8 600 м средняя, верхняя 
[Sc|Ac trans|Ci fib]
+5.2 -7.3 40 +5  1020.1  -1.8  749  297           
09 16.10.17 350 (С) 20000 м  {ливн. осадки}  10/6 600 м кучево-дожд., средняя, верхняя 
[Cb cap|Ac trans|Ci fib]
+0.7 -2.1 81 1021.2  0.7  749  301           
12 16.10.17 330 (СЗ) 20000 м  {ливн. осадки}  8/0 средняя, верхняя 
[Ac trans|Ci fib]
-1.2 -2.5 91 -1  1022.3  0.9  750  304    +5.7  0.0     
15 16.10.17 010 (С) 20000 м  {ливн. осадки}  10/10 600 м кучево-дожд. 
[Cb cap]
-0.6 -2.2 89 -2  1023.5  1.3  751  303           
18 16.10.17 340 (С) 20000 м  {ливн. осадки}  ясно 
-3.7 -7.5 75 -6  1026.3  2.4  753  308           
21 16.10.17 310 (СЗ) 20000 м    ясно 
-6.4 -9.9 76 -8  1028.9  2.3  754  312           
00 17.10.17 320 (СЗ) 20000 м    ясно 
-4 -10.6 60 -6  1030.9  2.1  756  310  -7.3    0.4  равномерный
мокрый или
старый снег
100% 
03 17.10.17 320 (СЗ) 20000 м    ясно 
+0.4 -12 39 -1  1030.6  0.1  756  305           
06 17.10.17 320 (СЗ) 4-10{10}  20000 м    ясно 
+2.2 -14.7 27 1029.2  -1.2  755  303           
09 17.10.17 300 (СЗ) 1{10}  20000 м    3/0 верхняя 
[Ci fib]
-1.1 -13.6 38 -1  1029.6  0.2  755  307           
12 17.10.17 тихо ()   20000 м    ясно 
-4.4 -10.9 60 -4  1029.9  755  310    +2.4       
15 17.10.17 190 (Ю) 20000 м    4/0 средняя, верхняя 
[Ac trans|Ci fib]
-4.8 -10.6 64 -4  1029.9  755  311           
18 17.10.17 150 (ЮВ) 20000 м    ясно 
-6.6 -10 77 -6  1029.1  -1  754  313           
21 17.10.17 140 (ЮВ) н/о    н/о 
-4.4 -10.4 63 -6  1027.2  -1  753  309           
00 18.10.17 160 (Ю) 20000 м    10/0 верхняя 
[Cs]
-1.4 -7.5 63 -2  1026.5  -0.4  753  306  -6.8        влажная 
03 18.10.17 180 (Ю) 20000 м    10/0 верхняя 
[Cs]
+2.9 -7.6 46 +2  1024.7  -1.4  752  301           
06 18.10.17 160 (Ю) 20000 м    8/0 средняя, верхняя 
[Ac trans|Ci fib]
+3.8 -8 42 +3  1021.9  2.7  750  299           
09 18.10.17 140 (ЮВ) 20000 м    8/3 1000 м верхняя 
[Sc diur, vesp|Ci fib]
+2.4 -8.4 45 +2  1021.3  -0.6  749  300           
12 18.10.17 110 (В) 20000 м    8/0 верхняя 
[Ci fib]
+1.3 -8.9 47 1020.8  -0.6  749  301    +4.7       
15 18.10.17 100 (В) 20000 м    10/0 верхняя 
[Cs]
+0.5 -8 53 -1  1019.6  -1.1  748  302           
18 18.10.17 100 (В) 20000 м    6/0 верхняя 
[Ci fib]
-0.5 -7.6 59 -1  1019.4  -0.3  748  303           
Время (UTC), дата Ветер
(°,м/с) 
Видим.   Явления Облачность Т
(°С)
Тd
(°С)
f(%) Тe
(°С)
Pmin
(гПа)
dP
(гПа)
Po
(мм)
O2
(г/м3)
Тmin Tmax R s Состояние
почвы

Для получения пояснительной информации подведите курсор к названию столбца.

ПОГОДА в Белогорске - архив

Всё, что Вы хотите узнать о погоде в Белогорске - удобно и подробно!

Выберите нужную дату (начиная с 1 января 2015* года) и нажмите кнопку "Найти".
Будут отображены архивные сводки погоды по пункту Белогорск, начиная с указанной даты.


Отображать данные в формате CSV (для использования в таблицах Excel)


Внимание! Наш архив погоды предназначен исключительно для личного некоммерческого использования в познавательных целях. Если Вам необходимы официальные справки о состоянии погоды (для производственных, юридических, коммерческих и т.п. целей), обращайтесь в органы Росгидромета.

*Примечание: данная дата относится к архиву по метеостанциям СССР (Россия, СНГ, Балтия).
Архив по метеостанциям Зарубежной Европы и Азии (кроме Китая) хранится 10 дней, по другим регионам земного шара (Китай, Африка, Америка, Австралия, Океания) - 1 день.

Белогорск - район местоположения метеостанции


Название, широта, долгота, высота метеостанции:
Белогорск 50.9°ш. 128.5°д. 178 м над ур. моря [Российская Федерация]

Дополнительная информация

В oтличие oт бoльшинства пoгoдных сайтoв мы публикуем пoдрoбную метеoинфoрмацию в детальнoм прoфессиoнальнoм фoрмате.

Характеристики температуры и влажнoсти вoздуха измеряются на высoте 2 м в тени вдали oт зданий и деревьев.
Скoрoсть ветра измеряется на высoте 10 м (на урoвне рoста челoвека скoрoсть ветра ниже в 1.5-2 раза). Если метеoстанция нахoдится в гoрoде или в лесу, тo скoрoсть ветра занижена на 2-4 м/с пo сравнению с oткрытым местoм. Скoрoсть ветра над акватoриями крупных рек и oзёр, а также на вершинах хoлмoв на 2-5 м/с выше, чем в oбычных услoвиях.
Атмoсфернoе давление в разных тoчках местнoсти мoжет значительнo oтличаться oт давления на метеoстанции, в зависимoсти oт услoвий рельефа (при пoдъёме на 10 м давление пoнижается примернo на 1 мм рт.ст.).